Wind_Speed
36 35 35 34 32 31 30 30 28 27 27 27 27 27 26 26 25 23 21 19 18 18 18 17 16 16 17 17 17 17 18 18 18 18 19 20 20 21 22 23 24 24 25 26 28 29 29 29 29 30 31 33 34 35 36 38 39 41 43 45 46 48 50 51 52 52 52 50 47 44 40 37 34 32 30 29 29 28 27 26 25 23 23 23 24
36 35 35 34 33 31 30 30 29 28 27 28 28 28 27 27 25 23 21 20 20 19 19 18 18 18 18 19 19 19 19 19 19 20 21 21 22 22 22 22 23 25 26 28 29 30 30 30 31 32 33 34 35 36 37 39 41 43 45 47 49 51 53 54 54 52 50 47 43 40 38 36 34 32 30 29 29 29 29 27 26 24 23 23 23
36 36 36 35 34 32 31 30 30 29 29 29 29 29 29 28 26 24 22 21 21 20 20 20 20 20 20 21 21 21 21 21 21 22 22 23 23 23 23 23 24 26 28 29 30 31 32 32 32 33 34 35 36 37 39 41 43 45 47 49 51 53 54 54 52 49 45 43 41 39 37 36 35 33 31 30 29 29 29 29 27 25 23 22 23
37 38 38 37 35 34 33 32 32 31 31 31 31 30 30 29 27 25 24 23 22 22 21 22 22 22 22 22 22 22 23 23 23 23 23 24 24 24 24 24 25 27 29 30 32 32 33 33 34 35 36 37 38 40 41 43 45 47 50 51 53 53 52 50 47 44 41 40 40 39 38 37 36 34 33 31 29 28 29 29 28 27 24 22 22
38 40 40 39 38 36 35 35 34 33 33 32 32 32 31 30 28 26 25 25 24 24 24 24 24 25 24 24 23 23 23 24 24 24 25 25 25 25 25 26 27 28 30 31 33 34 34 35 36 37 38 39 41 42 44 46 48 50 51 52 52 51 48 45 42 40 39 39 39 39 39 38 37 36 34 32 29 28 28 28 28 27 25 23 22
39 40 42 42 41 39 38 37 36 35 34 34 34 33 32 31 29 28 27 27 27 26 26 26 26 26 26 26 26 25 25 25 25 26 26 26 26 26 26 27 29 30 31 32 34 35 36 36 38 39 39 41 43 45 47 50 51 52 52 51 48 45 43 41 41 39 39 38 39 39 40 39 38 37 35 32 29 27 27 27 27 26 25 23 23
40 41 42 43 43 41 40 38 37 36 36 36 36 35 34 33 31 31 30 29 29 29 29 29 28 28 28 28 28 27 27 26 27 27 27 28 28 28 28 29 31 32 33 34 35 36 37 38 40 41 42 44 46 48 50 52 52 52 50 47 44 42 40 40 40 39 38 38 38 39 40 40 39 37 35 31 28 26 26 27 26 26 25 24 23
42 41 42 43 43 43 41 40 39 38 38 38 38 37 36 34 34 33 32 31 31 31 31 31 30 29 29 29 29 29 29 29 28 29 29 29 29 29 30 31 32 33 34 35 37 38 39 40 41 43 45 47 49 50 51 52 50 48 46 44 43 42 41 40 40 39 38 37 38 39 40 40 39 37 34 31 28 25 25 25 25 25 25 25 24
43 43 43 43 43 42 42 42 41 40 40 40 39 38 37 36 36 35 34 33 33 33 33 32 31 30 29 29 29 30 30 31 31 31 31 30 30 31 32 33 34 35 36 37 38 39 41 42 44 46 48 50 51 51 50 48 46 44 43 43 42 42 41 40 40 39 39 39 38 38 39 39 37 36 34 31 28 25 23 23 24 24 25 26 25
43 44 44 43 42 42 42 42 43 42 42 42 41 40 39 38 37 36 36 35 35 34 33 32 31 30 30 30 31 31 31 32 32 32 32 31 32 32 33 34 35 36 37 38 39 41 44 46 48 49 51 51 50 48 45 43 42 41 41 41 40 40 40 40 40 40 40 40 39 39 39 38 36 34 32 30 27 25 22 21 22 23 25 26 24
43 44 44 43 42 42 42 42 43 44 44 43 42 42 41 39 38 37 37 36 36 35 33 32 30 30 30 31 32 32 32 32 33 33 33 33 33 33 34 36 37 38 38 40 41 44 46 49 50 51 51 49 46 43 41 40 39 39 38 38 38 39 39 40 41 40 40 40 41 40 40 39 37 32 28 27 26 23 21 19 19 21 23 24 23
41 42 42 42 42 43 42 42 43 44 45 45 44 43 42 40 39 38 36 36 35 35 33 31 30 31 32 33 33 33 33 33 33 33 33 33 34 35 35 37 38 39 40 42 44 47 49 50 50 49 47 44 41 40 39 38 37 37 37 37 37 37 38 39 39 38 38 40 41 41 41 40 39 33 26 24 24 22 19 17 17 18 20 22 24
39 40 40 41 42 42 42 42 42 43 44 44 44 43 43 41 39 37 36 35 35 35 33 32 32 32 33 34 34 33 33 33 32 33 33 34 35 36 37 38 39 41 43 45 47 49 50 49 47 44 42 40 38 38 37 37 37 37 36 36 36 36 37 37 36 35 34 36 38 39 40 39 39 35 27 22 22 20 18 17 17 19 21 24 26
36 37 39 40 40 41 41 41 41 42 42 42 43 43 42 41 38 37 36 35 35 35 34 34 34 33 34 34 34 33 33 33 33 33 34 35 36 37 38 40 42 43 45 47 49 49 47 45 42 39 38 37 36 36 36 36 36 35 35 35 35 36 36 36 34 33 32 33 33 35 37 36 36 36 31 24 22 19 18 18 19 19 21 24 27
33 34 36 37 38 39 40 40 41 41 41 41 41 42 41 40 38 37 36 36 35 35 35 36 35 35 34 34 34 34 33 33 33 33 34 36 37 39 40 43 44 46 47 48 47 45 42 39 38 37 36 35 34 34 33 33 35 36 36 37 38 38 38 37 36 35 34 33 33 33 35 35 34 35 34 29 25 21 19 20 20 18 18 22 27
32 32 33 34 35 36 37 39 39 40 41 41 41 41 41 39 38 37 37 36 36 36 36 36 36 36 36 35 34 34 34 33 33 34 35 36 38 41 43 45 47 47 46 45 43 39 37 35 35 35 35 34 33 33 32 33 35 37 38 40 41 42 42 40 39 39 39 38 37 36 36 35 34 35 35 33 29 25 23 23 22 17 16 22 29
33 32 31 31 32 34 35 36 38 39 40 41 42 41 41 40 39 39 38 38 37 37 37 37 37 37 37 35 34 34 34 34 34 34 35 38 40 43 45 47 47 45 43 40 37 35 34 33 33 33 33 32 32 32 32 33 36 38 39 41 43 45 45 42 40 41 41 40 40 40 39 38 35 34 35 36 35 31 28 28 27 21 20 26 32
33 32 32 31 31 31 33 34 36 38 40 41 42 41 41 41 41 40 40 39 38 38 38 38 38 38 36 35 34 34 34 34 35 36 38 40 43 44 46 46 43 40 37 36 35 34 33 32 31 32 32 33 33 34 34 35 37 39 40 42 44 46 46 44 43 43 41 40 41 41 41 41 39 36 36 37 39 37 34 33 32 28 26 30 33
32 31 31 31 31 31 32 33 35 37 39 40 41 41 41 41 41 41 40 40 39 39 39 39 38 37 36 35 35 35 35 36 37 39 40 42 44 44 43 41 37 34 33 33 33 33 32 31 31 32 33 35 36 37 38 39 40 42 42 43 45 47 48 46 46 45 43 41 41 41 41 42 40 39 38 37 39 41 40 38 36 34 34 35 35
33 31 30 31 32 32 33 34 35 36 38 39 39 40 40 40 40 41 41 41 40 40 39 38 37 37 36 36 36 36 36 38 40 42 43 43 42 40 37 33 30 30 31 31 30 30 30 30 30 31 33 36 38 39 40 41 42 44 45 45 46 48 48 47 47 48 47 48 49 49 48 45 42 41 41 40 40 42 43 42 39 38 39 38 37
38 35 34 33 33 33 34 35 36 37 38 39 39 40 40 40 41 41 41 41 40 39 39 38 38 37 37 37 37 38 39 41 43 43 43 41 38 34 31 29 28 28 30 30 29 29 30 31 32 33 35 37 39 40 42 43 44 45 47 48 48 49 49 48 48 48 50 53 55 54 51 49 47 46 44 42 41 42 43 42 40 39 40 41 43
41 40 38 37 37 36 36 36 37 38 38 39 39 40 40 40 40 40 40 40 39 39 39 39 38 38 38 39 40 41 42 43 43 42 39 36 32 30 28 27 28 28 30 30 30 31 32 33 35 36 37 39 41 42 44 46 47 48 49 50 51 51 50 49 47 45 48 52 54 51 50 51 52 50 46 42 42 43 42 40 38 37 38 38 38
44 43 42 42 41 40 39 39 39 39 39 39 40 40 40 40 40 40 40 40 40 40 40 40 40 40 41 41 42 43 43 42 40 38 34 31 28 27 27 28 28 29 30 31 32 32 34 35 37 38 40 41 43 45 47 49 50 51 52 53 53 53 52 50 44 40 41 47 50 50 52 53 52 49 46 42 42 43 42 39 35 36 38 37 34
47 46 45 45 44 43 42 41 41 41 41 42 42 42 42 42 42 42 42 42 42 41 41 42 42 42 43 43 43 42 41 38 35 33 30 28 28 28 28 29 29 29 31 32 33 34 36 37 38 40 41 43 45 46 49 51 53 54 55 55 55 55 53 50 45 41 39 42 45 45 47 49 48 46 45 44 44 44 42 36 32 37 46 50 50
48 47 47 46 46 45 44 44 43 43 43 43 43 43 43 43 44 44 43 43 43 43 43 44 44 44 43 42 41 39 37 35 32 30 29 28 28 29 30 30 29 30 32 34 35 36 37 38 40 41 43 44 46 48 50 53 55 56 57 58 58 57 55 51 48 48 48 47 46 45 43 45 47 45 44 46 47 46 42 37 36 44 56 63 65
50 49 48 48 47 47 46 46 46 46 46 46 45 45 45 45 46 46 46 45 45 45 45 45 44 43 41 38 36 35 34 32 31 29 29 29 30 31 31 31 32 32 34 35 36 37 39 40 42 43 44 46 48 50 52 54 56 57 58 59 59 59 57 54 52 53 54 53 52 51 49 48 48 47 46 47 49 49 47 45 48 56 63 68 68
51 50 50 50 49 49 48 48 48 48 48 48 48 48 48 48 48 48 47 47 47 46 45 44 42 39 36 33 32 32 32 31 30 30 31 31 32 33 33 34 35 35 36 38 38 40 41 42 43 45 46 48 50 52 53 55 57 58 59 60 60 59 58 56 55 56 57 58 57 57 56 54 51 49 49 49 49 50 50 50 55 60 63 64 64
48 50 50 50 50 49 49 49 48 48 49 49 49 49 48 49 49 48 48 47 46 45 42 40 37 34 32 32 32 32 31 31 31 32 33 34 35 36 36 37 38 39 39 40 41 41 43 44 45 47 48 50 52 54 55 57 58 59 60 61 61 61 59 57 57 58 59 61 61 61 60 58 54 51 50 49 48 49 51 53 57 63 65 64 62
43 45 46 47 47 47 47 47 47 47 47 48 48 48 47 48 48 47 46 45 43 40 38 36 34 32 32 32 32 31 31 32 33 34 35 36 37 38 39 40 41 41 42 42 43 43 45 46 47 49 51 53 54 56 58 59 60 61 62 63 63 63 61 58 57 58 60 62 63 63 61 59 54 51 51 50 48 48 50 52 56 61 65 65 62
36 38 40 41 42 42 43 43 44 44 45 45 45 44 44 44 44 43 41 39 37 36 34 33 32 32 32 32 32 32 33 34 35 36 38 39 40 41 42 43 43 44 44 44 45 46 47 48 50 52 54 55 57 58 59 60 61 62 64 66 67 64 60 57 57 58 61 63 65 63 60 57 54 50 51 51 48 45 47 49 52 56 60 63 62
34 35 35 36 36 37 38 39 40 40 41 41 41 40 40 39 39 38 36 35 34 34 33 33 33 33 33 33 33 34 35 36 38 39 40 41 42 43 44 44 45 45 46 46 47 48 49 51 52 54 57 58 59 60 60 61 62 63 64 67 68 62 56 55 57 59 62 66 65 62 59 58 54 50 50 51 47 43 43 45 47 50 53 57 60
34 34 34 34 35 35 36 37 37 38 38 38 38 37 37 37 37 36 35 35 34 35 35 35 35 36 36 36 36 37 38 39 40 41 43 44 45 45 46 46 47 47 47 48 49 50 52 54 55 57 59 60 61 61 62 62 63 63 65 66 64 57 53 54 56 59 64 67 64 60 59 59 54 49 49 51 48 44 42 40 41 43 47 52 58
36 36 36 36 36 36 37 37 37 38 38 38 37 37 38 38 37 37 37 37 36 37 37 37 38 38 39 39 40 41 41 42 43 44 45 46 47 47 48 48 49 49 49 50 52 53 55 57 58 60 61 62 62 62 63 64 64 64 65 64 59 54 54 55 55 59 65 66 62 59 59 58 54 49 49 48 46 43 42 41 39 41 43 46 52
40 39 38 38 38 39 39 39 39 40 40 39 39 39 40 40 40 39 39 39 39 39 39 39 40 41 42 43 43 44 44 45 46 47 47 48 48 49 50 50 51 51 52 53 55 57 58 59 60 61 62 63 64 64 64 65 65 65 64 62 58 56 57 55 54 58 63 62 60 60 58 53 49 47 46 44 42 42 43 42 40 39 39 42 48
43 42 42 41 41 41 41 42 42 42 42 42 41 41 41 41 41 41 41 41 41 41 42 43 43 44 45 46 46 47 47 48 48 49 50 50 51 52 53 53 54 54 56 57 59 60 61 62 62 63 64 65 65 66 66 66 66 66 64 62 60 59 59 55 52 55 60 60 59 59 57 49 43 41 40 38 38 40 43 43 41 37 35 38 43
47 46 44 44 43 43 43 44 44 44 44 44 43 43 43 43 43 43 43 43 43 44 45 46 47 47 48 49 49 50 50 51 51 52 52 53 54 55 56 57 58 58 59 61 61 62 63 63 64 64 65 66 67 67 67 68 68 67 65 64 62 61 59 55 50 50 56 57 55 55 56 51 43 37 34 33 35 39 41 42 41 38 34 34 37
50 49 47 46 45 45 46 46 47 47 46 46 46 45 45 45 45 46 46 46 47 48 48 49 50 51 51 52 52 52 53 54 54 55 56 57 57 59 60 60 61 62 63 63 64 64 64 65 66 66 67 68 69 69 69 69 69 68 67 66 64 61 59 54 47 46 51 53 50 48 50 50 46 40 33 30 33 37 37 37 37 34 30 28 28
52 51 49 48 48 48 48 49 49 49 49 49 49 49 49 49 49 49 49 50 50 51 52 52 53 54 54 55 55 55 56 57 58 58 59 60 61 62 63 63 64 65 65 66 66 66 67 68 68 69 69 70 71 71 71 71 71 69 67 66 64 61 59 55 48 42 46 49 48 46 46 46 44 41 37 32 31 31 30 29 28 26 24 22 21
54 53 52 52 51 50 51 51 51 52 52 52 52 52 52 52 52 52 52 53 53 54 55 56 56 56 57 57 58 59 60 61 61 62 63 63 64 65 66 67 67 68 68 68 69 69 70 70 70 71 72 72 72 73 73 73 72 70 67 65 63 60 59 57 49 40 41 46 46 45 45 44 41 38 36 35 32 29 24 21 21 22 23 23 22
57 56 55 54 54 54 53 53 54 54 54 54 54 54 54 55 55 56 56 56 57 57 58 58 59 59 60 61 62 63 63 64 65 65 66 67 68 68 69 70 70 70 71 71 72 72 72 73 73 73 73 74 74 74 73 72 71 68 64 62 61 60 60 59 52 43 39 41 41 41 42 44 40 35 33 33 32 30 28 25 25 26 27 27 28
58 58 58 57 57 57 57 57 57 57 57 57 57 57 58 58 59 59 59 59 60 60 61 62 62 63 64 65 66 66 67 67 68 69 70 70 71 71 72 73 73 74 74 74 74 74 74 75 75 75 75 75 74 73 72 71 68 63 60 59 61 61 61 61 56 46 39 37 38 40 41 42 40 36 34 33 32 32 32 33 32 32 33 31 30
60 60 60 60 61 61 61 61 61 61 61 61 61 61 61 62 62 62 62 63 63 64 65 66 67 67 68 68 68 69 70 71 72 72 73 73 73 74 75 75 76 76 76 76 77 77 77 77 76 76 76 76 74 72 70 67 63 59 58 60 61 63 64 64 58 48 41 38 40 41 41 40 39 37 36 36 35 33 34 36 37 36 38 37 32
62 62 63 63 64 64 65 65 65 65 65 65 65 65 66 66 66 66 66 67 68 68 69 70 70 70 71 71 72 73 74 74 75 75 76 76 76 77 77 78 79 79 79 79 80 80 79 78 78 77 77 76 73 70 68 64 60 59 61 63 64 66 68 67 62 54 48 44 43 42 42 42 40 38 36 37 38 37 37 39 39 38 39 41 39
65 66 66 66 67 67 68 69 69 69 70 70 70 70 70 70 70 70 70 71 71 72 72 73 73 74 74 75 75 76 76 77 78 78 79 79 79 79 80 81 82 82 82 83 83 82 80 79 79 79 78 75 72 69 66 63 62 63 66 67 69 71 72 69 66 62 57 51 46 44 43 43 42 41 39 38 40 40 40 42 42 41 40 42 43
69 69 70 70 70 71 71 71 72 72 73 73 73 73 73 73 73 73 73 73 74 75 75 76 77 77 77 78 78 78 79 80 80 81 82 82 82 82 83 84 85 85 85 85 84 82 81 81 81 80 78 75 72 70 68 66 67 69 71 72 75 76 75 71 69 68 63 57 51 46 43 41 42 42 42 42 43 44 44 45 46 46 45 44 45
73 73 74 74 74 74 74 75 75 75 75 75 75 75 75 75 75 75 76 77 78 78 78 79 79 80 80 81 81 81 82 83 84 85 85 85 85 85 86 86 86 86 86 86 84 83 83 83 82 80 77 76 74 73 71 71 71 72 74 76 78 78 75 73 71 70 67 63 59 53 48 45 44 43 43 43 45 47 48 48 49 50 50 49 49
76 76 77 77 78 78 77 77 77 77 77 77 77 77 77 78 78 79 80 80 81 81 82 82 82 83 83 83 84 84 85 86 87 88 88 88 88 87 87 86 86 87 86 86 85 85 85 84 82 80 79 78 77 75 74 73 73 74 77 80 80 78 76 74 73 71 68 66 64 60 55 52 49 45 42 42 44 46 49 51 52 54 55 55 55
79 79 79 79 79 79 78 78 78 78 78 79 79 80 80 81 81 82 83 83 84 84 84 85 85 86 86 86 87 88 89 89 89 89 89 89 89 88 88 87 87 87 87 87 88 88 86 84 82 82 81 80 78 76 76 76 76 79 82 83 81 79 77 76 75 73 70 68 67 65 63 60 57 53 48 44 43 44 47 50 52 55 57 59 60
81 81 81 81 80 80 80 80 80 80 81 82 82 83 83 84 85 85 86 86 86 87 88 88 89 89 89 90 90 91 91 91 91 90 90 90 89 89 88 88 88 89 89 89 89 88 87 86 85 84 82 80 78 79 80 81 82 85 87 86 83 81 80 78 76 74 72 69 68 67 67 66 65 62 57 52 48 46 46 47 50 52 55 58 62
83 83 82 82 81 82 82 83 83 84 84 84 85 86 86 87 88 89 89 89 90 90 90 91 91 91 92 92 92 92 92 92 92 91 91 91 90 90 90 90 91 91 91 90 90 89 89 87 86 83 81 81 82 84 87 88 89 90 89 88 86 84 82 80 77 76 74 71 69 68 68 68 68 67 66 63 59 55 51 49 50 51 54 56 59
82 83 83 83 83 84 84 85 86 86 87 87 88 89 90 91 91 92 92 92 92 92 92 92 92 92 92 92 92 92 92 92 92 92 92 92 92 92 92 92 93 93 92 91 91 90 89 87 86 85 84 85 89 92 93 92 91 91 90 90 89 87 84 82 80 78 76 73 71 70 70 70 70 70 71 71 70 68 64 60 56 54 55 56 58
Wind_Direction
222 218 214 212 213 215 216 219 220 219 219 219 220 222 223 224 225 224 224 225 228 232 236 242 247 252 256 259 262 268 274 280 286 291 296 301 305 310 312 314 315 317 319 322 324 326 326 326 326 327 328 328 329 329 329 329 329 330 330 330 329 329 328 328 327 326 325 324 323 323 322 321 319 316 312 306 301 298 296 293 290 284 280 279 279
225 222 219 217 216 216 217 219 219 219 219 220 221 223 224 225 226 225 226 227 230 235 240 245 251 257 263 268 270 273 278 282 287 291 295 299 303 307 309 310 311 312 315 318 322 324 323 323 324 325 326 327 327 327 327 327 327 327 327 327 327 327 327 326 325 324 324 323 323 322 322 321 320 317 313 307 301 296 293 290 287 284 281 280 280
226 224 221 219 218 217 217 218 219 219 218 220 222 223 224 225 226 227 228 231 235 240 245 250 255 259 265 272 277 281 284 286 290 292 295 298 301 304 305 305 306 309 313 317 320 321 321 322 323 323 324 324 324 324 324 325 325 325 325 326 326 325 324 324 323 324 324 324 323 323 322 322 320 318 314 308 301 295 291 288 285 282 279 279 279
224 223 222 220 219 217 216 217 218 219 219 220 222 223 225 226 228 229 232 235 239 244 250 255 260 263 266 271 276 282 286 289 292 293 295 297 300 301 302 303 305 308 312 314 317 319 319 320 320 321 321 322 322 322 323 323 323 324 324 324 323 323 322 322 323 324 325 324 324 324 323 323 321 318 314 308 302 295 289 285 282 280 277 276 278
220 220 220 219 218 218 218 218 219 221 221 222 224 225 227 229 230 232 235 239 242 247 252 258 263 267 269 271 274 278 284 289 292 294 296 297 299 300 301 303 305 308 310 312 315 317 317 317 318 319 320 321 321 321 321 322 322 323 323 322 321 321 322 322 323 324 325 325 325 325 324 323 322 319 315 311 305 297 290 284 281 278 276 275 277
217 218 218 218 218 218 219 219 220 222 224 225 227 228 230 231 233 235 238 241 246 250 254 258 263 268 271 273 275 278 282 287 291 293 295 297 298 300 302 304 305 307 309 312 313 314 315 315 316 318 319 320 320 320 321 321 322 322 321 320 321 321 322 323 324 325 326 326 326 325 324 324 322 319 316 312 307 301 294 287 282 279 277 276 278
214 215 217 218 218 218 219 220 221 223 225 227 230 231 232 233 235 237 240 243 248 252 256 259 263 266 271 275 279 281 284 288 291 293 295 297 298 300 301 303 304 306 309 310 311 312 313 315 316 318 319 319 319 320 320 321 321 320 320 320 321 323 324 324 324 325 326 327 327 326 325 324 323 320 316 312 308 303 297 290 285 282 279 278 279
213 213 215 217 218 219 220 222 223 225 226 229 231 233 234 236 237 240 242 246 250 254 258 262 265 268 272 276 280 284 288 290 292 294 295 296 297 299 300 302 304 306 308 309 310 312 313 315 316 317 318 318 319 320 320 320 320 320 321 322 324 325 325 325 324 325 327 328 328 327 326 325 324 320 315 311 307 302 297 292 287 284 282 280 280
214 213 214 216 217 219 221 222 225 227 229 231 232 234 236 238 240 243 246 249 252 255 259 263 267 270 273 277 281 284 288 290 291 292 293 294 296 298 300 302 303 305 306 308 311 312 314 315 316 317 317 318 319 320 320 320 320 321 322 324 325 326 326 326 327 328 329 329 328 327 327 327 325 320 314 311 308 302 297 292 287 284 283 281 280
219 216 215 215 216 218 221 223 225 228 230 233 235 236 238 240 243 246 249 252 254 257 260 263 267 271 275 278 281 283 286 287 288 290 292 294 296 298 300 301 303 305 307 309 311 312 314 315 316 317 317 318 319 320 320 321 322 322 323 325 326 327 327 329 330 331 331 329 328 328 329 329 327 322 316 312 309 304 299 294 289 285 283 282 281
224 222 219 217 216 217 220 223 226 228 231 234 236 238 241 243 246 249 252 254 256 258 260 263 267 272 275 277 279 281 283 285 287 290 293 295 296 297 299 301 303 306 308 309 311 313 314 314 315 316 317 318 319 321 322 322 322 323 324 326 327 328 328 330 332 334 333 330 329 329 330 330 328 326 321 314 310 307 303 298 292 286 284 283 283
229 228 225 222 219 218 220 223 226 229 232 234 237 240 243 245 248 250 253 255 257 259 261 265 268 271 273 275 277 280 283 286 289 291 294 295 296 297 299 302 304 306 308 310 312 313 313 314 315 316 317 319 321 322 322 322 322 323 325 326 326 326 326 328 332 335 334 331 329 329 330 330 328 327 325 316 310 307 304 302 298 295 293 291 289
232 232 231 228 225 222 222 223 226 229 232 235 238 241 244 247 249 252 254 256 258 261 265 267 268 270 272 275 277 280 284 287 290 292 294 295 296 298 301 303 304 306 308 310 311 311 312 314 315 316 318 320 321 322 323 323 323 324 325 325 325 324 324 327 331 334 332 329 328 328 328 328 327 325 323 315 306 303 302 306 308 306 302 297 294
233 234 234 232 230 227 225 225 227 229 232 235 238 241 244 248 251 253 255 258 261 264 266 267 268 270 272 275 278 281 284 287 290 292 293 294 297 300 302 303 304 306 309 310 310 310 312 314 315 317 318 320 322 323 323 324 324 325 327 328 327 326 325 327 330 332 328 326 327 325 323 324 323 320 318 311 299 294 298 305 308 308 305 303 301
234 234 235 234 233 230 228 228 228 230 232 236 239 242 245 249 252 254 257 260 262 264 266 268 269 271 273 275 278 282 285 287 289 290 292 295 298 300 301 302 304 307 308 309 309 310 312 314 316 318 319 321 323 324 325 327 327 328 330 330 329 328 327 329 332 331 328 328 327 323 321 321 320 316 314 307 294 286 290 298 300 303 309 312 310
235 235 234 234 233 232 230 229 230 231 233 236 239 242 246 249 252 254 256 259 260 262 264 267 269 271 273 276 280 283 284 285 287 290 294 296 298 300 301 302 304 306 307 307 308 310 313 315 316 318 319 320 323 324 327 329 329 329 331 330 329 328 328 332 333 330 330 330 327 324 322 320 317 314 311 305 295 284 281 286 289 294 307 313 314
236 235 235 234 234 233 232 232 232 233 235 237 240 243 246 249 251 253 255 257 259 261 263 266 268 271 275 278 279 281 282 285 288 292 294 296 298 299 299 301 303 305 306 306 307 310 313 315 316 316 317 319 322 324 327 329 329 329 330 329 328 327 328 332 333 330 330 329 326 324 322 319 316 312 307 303 298 288 279 277 280 284 295 305 315
235 235 235 235 234 235 235 234 235 235 237 239 242 244 247 250 252 254 255 257 259 261 263 265 268 272 274 277 278 280 283 287 290 292 294 296 296 297 298 300 302 304 305 306 308 311 313 315 315 316 317 319 322 324 327 328 327 328 328 327 326 325 326 330 330 328 328 327 322 321 319 317 315 311 304 300 298 293 284 276 274 278 287 299 315
233 234 235 236 236 236 236 236 236 237 238 240 242 244 246 249 251 254 255 257 259 261 264 266 269 271 273 275 278 282 285 288 291 292 293 293 294 295 297 299 301 303 304 305 306 308 310 311 313 316 319 321 322 324 325 325 325 325 324 324 323 321 322 325 325 323 324 322 319 317 316 312 310 308 303 298 295 293 288 281 276 278 284 292 309
232 235 236 237 237 237 237 238 238 238 240 241 242 244 246 248 250 253 255 257 260 262 265 267 269 271 274 277 281 284 286 289 290 291 291 291 292 293 294 295 297 299 299 299 300 301 303 306 310 314 317 319 320 321 322 322 322 321 320 320 320 318 319 321 320 319 319 317 313 311 311 307 304 303 300 295 291 288 287 285 282 280 283 290 304
234 235 236 237 237 237 238 239 240 241 242 243 245 246 248 249 251 254 257 259 262 264 266 268 271 273 276 279 282 284 287 288 288 288 288 289 290 290 291 293 295 295 295 295 296 299 302 306 310 313 315 316 318 319 320 320 320 319 319 319 319 317 317 318 317 317 315 310 306 305 304 301 299 298 295 292 289 286 284 286 286 283 283 287 294
234 234 235 236 236 237 238 240 241 243 244 246 247 249 250 252 254 256 258 261 263 265 267 269 272 274 276 279 281 284 286 286 286 286 286 286 287 288 290 292 293 293 294 296 300 304 307 310 312 313 314 316 317 319 319 319 320 320 320 320 318 318 318 317 316 316 312 306 303 301 299 298 298 297 294 289 287 285 282 283 286 285 284 287 291
234 234 234 235 236 237 239 240 243 244 245 247 248 249 251 253 255 257 259 261 263 265 267 270 272 274 277 279 282 284 284 283 282 282 283 284 285 286 286 287 289 292 296 300 304 307 308 310 311 312 314 316 317 319 319 319 320 321 321 320 319 319 318 317 316 314 309 305 303 301 299 298 297 296 295 290 285 283 280 278 281 285 286 289 292
234 235 235 235 236 237 239 241 243 245 247 248 249 251 252 254 255 257 259 261 263 265 268 270 272 274 277 279 281 281 279 278 277 278 280 281 282 282 282 285 288 293 298 302 305 306 307 308 310 311 313 315 317 318 319 319 320 320 320 319 319 319 319 317 315 313 309 306 304 302 301 301 298 294 293 288 281 278 275 271 273 278 280 279 277
235 236 236 237 237 238 239 241 243 245 247 248 250 251 253 254 256 257 259 261 263 265 268 270 272 275 276 277 277 274 272 271 272 274 276 277 278 280 282 286 290 295 299 301 303 304 305 306 308 310 312 314 316 318 318 318 318 318 317 318 318 318 317 314 311 310 310 308 307 307 306 304 299 292 286 281 275 272 267 258 254 261 266 265 262
237 237 238 238 239 240 240 242 243 244 246 248 249 251 252 254 255 257 259 261 263 265 268 270 272 273 273 272 270 268 268 269 271 273 274 275 278 281 285 288 292 295 298 300 302 303 303 305 307 309 312 314 315 316 316 316 316 316 316 316 317 316 314 311 308 308 308 308 308 308 308 305 299 292 283 275 269 266 262 252 245 249 256 258 257
238 239 240 240 241 242 242 243 244 246 247 248 250 251 252 254 256 258 260 262 264 266 267 268 268 268 266 265 264 265 268 270 271 273 276 278 282 286 289 292 294 296 297 299 300 301 302 303 306 309 311 313 314 314 314 313 314 314 314 315 316 315 313 311 309 307 306 307 308 308 308 306 301 294 286 277 269 264 260 253 247 247 253 257 259
238 239 240 241 242 244 244 245 246 247 248 250 251 252 254 255 257 259 261 262 263 264 264 263 262 260 260 260 262 265 267 270 272 276 279 283 286 289 291 292 293 294 295 296 298 299 301 303 306 308 310 311 312 311 311 312 313 314 314 315 315 315 313 312 309 307 307 308 308 309 309 307 302 294 287 281 274 266 261 256 251 250 252 255 258
236 237 239 240 241 243 244 245 246 247 248 250 251 253 254 255 257 259 260 261 261 260 259 258 257 257 258 260 263 265 267 270 274 278 281 284 286 288 289 290 291 291 293 295 297 299 301 303 305 307 308 309 309 309 310 311 313 314 315 315 315 315 314 312 310 309 309 309 309 311 311 308 303 294 287 284 279 269 263 261 257 254 255 256 258
235 236 237 239 240 241 242 243 244 245 246 248 249 251 252 254 255 256 256 257 256 255 255 255 256 258 260 262 264 266 268 271 274 277 280 282 285 286 288 288 289 291 293 296 298 300 301 303 304 305 306 307 307 308 310 311 314 315 316 316 316 315 314 313 312 311 310 310 311 313 313 310 304 295 288 287 283 273 267 267 264 261 259 258 258
235 236 237 238 239 239 240 240 242 243 244 246 247 248 249 250 251 252 253 253 253 253 253 254 256 258 260 262 264 266 268 271 274 277 280 282 284 285 287 289 291 292 295 297 299 300 301 302 303 304 305 306 306 308 310 312 314 316 317 316 316 315 315 314 313 313 312 311 313 315 315 311 305 296 290 289 287 280 277 275 274 270 265 260 258
237 238 238 238 239 239 240 240 241 242 244 245 246 247 248 249 250 251 251 252 252 252 253 254 257 260 262 264 266 268 270 273 276 278 281 282 284 286 288 290 292 294 296 297 298 299 300 301 302 303 304 305 306 308 310 312 314 316 316 316 315 315 315 315 315 314 312 311 314 317 316 312 306 296 291 291 290 288 287 286 281 275 268 261 259
240 239 239 240 240 240 241 242 243 244 245 246 247 249 250 251 251 252 252 252 252 253 254 256 259 262 264 266 268 270 273 275 277 280 281 283 284 286 288 290 292 293 295 296 296 297 298 299 301 302 303 304 306 308 310 312 313 315 316 315 313 314 317 318 317 313 311 312 315 317 316 313 306 297 293 294 293 292 292 291 286 278 271 264 260
242 242 241 241 241 240 241 242 243 244 246 247 248 249 250 251 251 251 252 252 253 254 257 259 262 264 265 268 270 272 275 277 278 279 281 282 284 286 287 289 291 292 294 294 295 296 298 299 300 302 303 304 306 308 309 311 312 314 315 313 311 313 318 320 318 314 312 313 316 317 317 313 305 297 296 296 294 293 295 295 291 283 276 268 262
242 243 243 242 242 241 240 241 242 243 245 246 248 249 250 251 251 252 252 254 255 257 259 261 263 265 267 270 272 274 275 277 278 279 281 282 284 286 287 289 290 292 293 294 295 296 298 299 300 301 303 304 306 307 309 310 311 312 313 312 310 313 318 320 319 314 311 312 316 319 319 316 307 298 296 295 292 292 296 299 297 290 281 272 266
240 242 243 243 243 242 241 241 242 244 245 246 247 249 250 252 253 254 255 256 258 259 261 263 265 268 270 271 273 275 276 278 279 280 282 283 285 286 287 289 290 292 293 294 295 296 297 299 300 301 302 304 305 307 308 309 310 311 312 311 310 312 316 320 320 313 309 312 318 321 321 319 313 302 295 292 291 293 296 300 301 297 289 279 270
240 242 244 245 245 244 242 242 242 244 245 247 248 250 251 253 254 256 257 258 260 262 264 265 267 269 271 273 274 276 278 279 280 281 282 284 285 286 288 289 290 291 292 294 295 296 297 298 300 301 302 303 305 306 307 308 309 309 310 309 310 312 316 320 319 311 307 312 318 321 320 320 315 306 296 289 288 291 296 301 303 301 293 283 274
242 244 246 247 247 246 245 244 244 244 245 247 249 251 252 254 256 257 259 261 263 264 266 267 268 270 272 274 276 277 279 280 281 281 283 284 286 287 288 289 290 291 293 294 295 296 297 298 300 301 302 304 305 306 307 307 307 308 308 309 309 311 316 320 318 310 307 311 316 319 318 318 314 306 297 288 285 288 293 298 298 292 282 274 265
244 245 246 247 248 248 247 247 247 247 247 248 250 252 254 256 258 260 261 263 264 265 267 268 270 272 274 275 277 278 279 280 281 282 284 285 286 287 288 289 290 292 293 294 295 296 297 299 300 301 303 304 305 306 306 306 307 307 307 307 308 310 316 319 317 309 306 310 314 317 317 316 311 302 291 284 283 282 280 275 270 264 259 254 245
246 247 247 248 249 249 250 250 251 251 251 252 253 255 257 258 259 261 262 263 265 267 269 271 272 274 275 276 277 278 279 280 282 283 284 285 286 287 289 290 291 292 293 294 295 296 297 299 300 301 303 303 304 306 306 305 305 306 305 305 307 310 316 319 316 308 304 307 312 315 315 313 310 298 281 274 275 274 267 257 250 245 243 243 240
245 246 247 248 249 250 251 252 252 253 253 254 255 257 258 260 261 262 263 265 267 269 270 272 273 274 275 276 277 279 280 281 282 283 284 285 286 288 289 290 291 292 293 294 295 296 297 298 300 301 302 303 304 305 305 304 304 304 303 304 307 311 315 318 315 308 302 304 308 310 309 309 308 298 281 270 268 266 261 257 252 245 241 241 239
242 244 245 247 248 249 250 252 252 253 254 255 256 258 259 260 262 264 265 267 268 269 270 271 272 273 275 276 278 279 280 281 282 283 285 286 287 288 289 290 291 292 293 294 294 295 297 298 300 301 302 303 303 304 303 302 302 302 302 304 307 311 314 316 314 308 302 303 306 307 307 308 306 298 284 272 269 265 259 254 251 247 245 246 243
243 244 244 245 246 247 248 250 251 253 254 256 257 258 259 261 262 264 265 266 267 269 270 271 273 274 276 277 278 279 280 282 283 284 285 286 287 288 289 290 291 291 292 293 294 295 296 298 299 300 301 302 302 302 302 301 301 302 302 304 308 311 313 315 314 311 308 306 306 305 305 306 305 300 287 274 269 267 262 256 251 248 248 248 247
245 246 246 246 247 247 248 249 250 252 253 254 256 257 259 260 262 263 265 267 268 270 271 273 274 275 276 277 279 280 281 282 283 284 285 286 287 288 289 289 290 291 292 292 293 295 296 298 299 299 300 301 301 301 301 300 300 301 302 304 307 311 313 313 313 312 311 309 307 304 302 300 300 300 293 280 271 268 265 260 255 251 248 247 246
245 247 248 249 249 249 250 250 251 252 253 255 256 258 259 261 263 264 266 268 270 271 272 274 275 276 277 278 279 280 281 282 283 284 285 286 287 287 288 289 290 290 291 292 293 295 296 297 298 298 299 300 300 300 299 299 299 300 301 303 306 309 311 311 311 311 311 310 309 307 303 299 298 298 294 285 277 271 266 261 257 254 251 247 245
245 246 248 249 250 250 251 252 253 254 256 257 259 261 262 264 265 267 268 269 270 271 273 274 275 276 277 278 279 280 281 282 282 283 284 285 286 287 288 288 289 290 291 292 293 294 296 297 297 298 298 299 299 299 298 297 297 298 300 303 305 307 308 308 308 309 309 308 309 309 306 302 301 299 294 287 282 276 271 266 260 256 253 250 246
247 248 249 250 250 251 253 254 255 257 259 260 262 264 265 266 267 268 269 270 271 272 273 274 275 276 277 278 279 279 280 281 282 283 284 285 286 286 287 288 288 289 291 292 293 294 295 296 297 297 298 299 299 298 297 297 297 298 302 304 306 306 306 306 306 306 306 306 307 308 306 303 302 300 295 288 283 279 276 271 265 259 256 254 251
250 251 251 252 254 255 256 257 259 260 261 263 264 265 266 267 268 269 269 270 271 272 273 274 275 276 277 277 278 279 280 281 282 283 284 285 285 286 287 288 289 289 290 291 292 294 295 296 296 297 298 298 298 298 297 296 297 299 303 305 306 305 305 305 304 304 304 304 305 306 307 306 305 303 298 293 288 283 279 275 270 264 260 257 255
252 253 255 256 257 259 260 261 261 262 263 264 265 266 267 268 269 270 270 271 272 273 273 274 275 276 277 277 278 279 280 280 281 282 283 284 285 286 287 288 289 289 290 291 292 293 294 295 296 297 298 298 298 298 298 298 298 300 303 304 304 304 304 303 303 302 303 303 303 304 305 306 307 306 304 301 297 291 284 280 276 273 268 263 260
253 255 257 258 259 260 261 262 262 263 264 265 266 267 268 269 269 270 271 272 272 273 274 274 275 276 277 277 278 278 279 280 281 282 283 283 284 285 286 287 289 290 291 292 292 293 294 295 295 296 296 297 298 299 300 300 300 301 302 302 303 303 302 302 302 301 302 302 302 303 304 304 306 306 306 305 303 299 294 288 282 279 277 274 270
255 257 258 258 259 260 261 262 262 263 264 265 266 267 268 268 269 270 271 271 272 273 273 274 275 276 276 277 277 278 279 280 280 281 282 283 284 285 286 287 289 290 291 291 292 293 294 294 295 295 295 297 299 300 301 301 301 300 300 301 302 302 302 302 301 301 301 301 301 302 303 304 304 305 306 306 306 305 303 299 293 288 285 282 279
Height
10976 10978 10980 10982 10984 10987 10990 10993 10995 10998 10999 11000 11001 11001 11002 11002 11002 11003 11004 11004 11005 11005 11005 11006 11006 11006 11006 11006 11006 11006 11006 11006 11006 11005 11004 11004 11003 11003 11002 11001 11000 10999 10999 10998 10997 10996 10995 10993 10992 10991 10990 10988 10987 10985 10983 10981 10979 10976 10974 10972 10970 10968 10965 10962 10959 10957 10954 10951 10948 10945 10943 10941 10939 10937 10934 10932 10930 10929 10928 10927 10927 10927 10926 10925 10925
10974 10977 10979 10981 10983 10986 10989 10991 10993 10996 10997 10998 10999 10999 11000 11000 11001 11002 11003 11003 11003 11004 11004 11004 11005 11005 11004 11004 11004 11004 11004 11004 11004 11003 11003 11002 11002 11001 11001 11000 10999 10998 10997 10996 10995 10994 10993 10992 10991 10990 10989 10987 10985 10983 10981 10979 10977 10974 10972 10969 10967 10964 10961 10958 10955 10952 10949 10946 10944 10941 10938 10936 10935 10933 10931 10928 10926 10924 10923 10923 10923 10923 10922 10922 10921
10972 10975 10977 10979 10981 10984 10986 10989 10991 10993 10995 10996 10997 10997 10998 10998 10999 11000 11001 11001 11002 11002 11002 11002 11003 11003 11003 11002 11002 11002 11002 11001 11001 11001 11000 11000 11000 10999 10999 10998 10998 10996 10995 10995 10994 10993 10991 10990 10989 10988 10987 10985 10983 10981 10979 10977 10975 10972 10970 10967 10964 10961 10957 10954 10951 10948 10945 10942 10940 10938 10935 10933 10931 10929 10927 10925 10923 10921 10919 10919 10918 10919 10919 10918 10918
10969 10971 10974 10977 10979 10981 10983 10986 10988 10990 10992 10993 10994 10995 10995 10996 10998 10999 10999 11000 11000 11000 11000 11000 11000 11000 11001 11001 11000 11000 10999 10999 10999 10998 10998 10998 10997 10997 10996 10996 10996 10995 10994 10993 10992 10991 10990 10988 10987 10986 10985 10983 10981 10979 10976 10974 10972 10970 10967 10964 10961 10958 10955 10951 10948 10945 10942 10939 10936 10934 10932 10930 10928 10926 10924 10922 10920 10919 10917 10916 10915 10915 10915 10915 10915
10965 10968 10971 10973 10975 10978 10980 10983 10985 10987 10990 10991 10992 10993 10993 10995 10996 10997 10997 10997 10998 10998 10998 10998 10998 10997 10998 10998 10998 10998 10997 10997 10996 10996 10995 10995 10995 10995 10994 10994 10994 10993 10992 10991 10990 10989 10987 10986 10985 10983 10982 10980 10977 10975 10973 10971 10969 10967 10964 10961 10958 10955 10952 10949 10946 10943 10940 10937 10934 10931 10929 10927 10925 10922 10920 10918 10917 10915 10914 10913 10913 10912 10912 10912 10912
10961 10964 10967 10969 10971 10974 10977 10979 10982 10985 10987 10988 10989 10990 10992 10993 10994 10994 10995 10995 10995 10995 10996 10996 10996 10995 10995 10995 10995 10995 10995 10994 10994 10993 10993 10993 10993 10992 10992 10992 10991 10990 10990 10989 10988 10986 10985 10983 10982 10980 10979 10977 10974 10972 10970 10967 10965 10963 10960 10957 10955 10952 10949 10946 10943 10941 10938 10935 10932 10929 10926 10923 10921 10919 10916 10914 10913 10911 10910 10910 10910 10910 10909 10909 10908
10957 10960 10962 10965 10968 10970 10973 10976 10979 10982 10984 10985 10986 10988 10989 10990 10991 10992 10992 10992 10992 10992 10992 10993 10993 10993 10992 10991 10991 10991 10992 10992 10991 10991 10991 10990 10990 10990 10990 10989 10989 10988 10987 10986 10985 10983 10982 10980 10978 10977 10975 10973 10971 10969 10966 10963 10960 10957 10955 10952 10951 10949 10946 10944 10941 10938 10936 10934 10931 10927 10924 10921 10918 10915 10913 10911 10909 10908 10907 10906 10906 10906 10906 10906 10905
10954 10956 10958 10961 10964 10967 10970 10973 10976 10978 10980 10981 10983 10984 10986 10987 10988 10988 10989 10989 10990 10990 10989 10990 10990 10990 10990 10989 10988 10988 10988 10988 10989 10988 10988 10988 10987 10987 10987 10987 10986 10985 10984 10983 10981 10980 10978 10977 10975 10973 10971 10969 10967 10965 10962 10959 10956 10953 10950 10947 10946 10944 10942 10940 10938 10935 10934 10931 10929 10925 10921 10919 10916 10913 10910 10908 10907 10905 10904 10903 10903 10903 10903 10903 10903
10951 10952 10954 10957 10960 10964 10967 10970 10972 10975 10976 10977 10979 10981 10982 10984 10984 10985 10986 10987 10987 10987 10987 10987 10987 10987 10987 10986 10986 10986 10986 10985 10985 10985 10985 10985 10985 10984 10984 10983 10983 10982 10981 10980 10978 10976 10974 10973 10971 10969 10967 10965 10963 10961 10958 10955 10952 10949 10946 10943 10941 10939 10937 10936 10934 10931 10929 10927 10925 10922 10919 10916 10914 10910 10907 10906 10905 10903 10903 10902 10901 10900 10900 10899 10899
10947 10949 10950 10953 10956 10960 10963 10966 10968 10971 10972 10974 10976 10977 10979 10980 10981 10982 10983 10984 10984 10984 10985 10985 10985 10985 10984 10984 10984 10984 10984 10983 10982 10982 10982 10982 10982 10981 10980 10979 10979 10978 10977 10976 10975 10972 10970 10968 10967 10965 10963 10961 10959 10957 10955 10952 10949 10946 10943 10941 10938 10936 10933 10932 10930 10928 10925 10923 10920 10918 10916 10913 10911 10908 10905 10903 10902 10901 10901 10900 10899 10898 10897 10896 10896
10944 10946 10948 10951 10953 10956 10959 10962 10964 10967 10969 10971 10972 10974 10976 10977 10978 10979 10980 10980 10981 10981 10982 10983 10983 10982 10982 10981 10981 10981 10981 10980 10980 10980 10979 10979 10979 10978 10977 10976 10975 10974 10973 10972 10971 10969 10966 10964 10962 10960 10958 10956 10955 10953 10951 10948 10946 10943 10941 10939 10937 10934 10931 10929 10927 10925 10922 10918 10916 10914 10912 10909 10907 10906 10904 10902 10900 10899 10899 10898 10897 10896 10895 10894 10894
10942 10944 10946 10949 10950 10952 10955 10958 10960 10963 10965 10967 10969 10971 10972 10974 10975 10977 10978 10978 10978 10978 10979 10981 10981 10980 10979 10979 10978 10978 10978 10978 10978 10977 10976 10976 10975 10975 10974 10973 10971 10970 10969 10968 10966 10964 10962 10960 10958 10956 10954 10952 10951 10949 10947 10945 10943 10941 10939 10937 10935 10932 10930 10928 10926 10924 10920 10916 10913 10911 10909 10906 10904 10903 10902 10901 10898 10898 10897 10896 10895 10894 10893 10893 10892
10939 10942 10944 10946 10948 10950 10952 10955 10957 10959 10962 10964 10966 10967 10968 10970 10972 10974 10975 10975 10975 10975 10976 10977 10977 10977 10977 10976 10975 10976 10976 10975 10975 10974 10973 10972 10971 10971 10970 10969 10968 10966 10965 10964 10961 10959 10957 10955 10954 10952 10950 10948 10947 10945 10943 10941 10939 10937 10936 10934 10932 10930 10928 10927 10926 10924 10921 10916 10913 10910 10907 10905 10902 10900 10900 10899 10897 10896 10895 10894 10894 10893 10892 10891 10891
10937 10939 10941 10943 10945 10948 10950 10952 10954 10956 10959 10961 10963 10964 10965 10967 10969 10971 10972 10972 10972 10972 10972 10973 10973 10974 10974 10973 10972 10973 10973 10973 10972 10971 10970 10969 10968 10967 10965 10964 10963 10962 10961 10959 10956 10954 10953 10951 10950 10948 10946 10945 10944 10942 10940 10937 10935 10933 10932 10930 10928 10926 10925 10924 10924 10922 10920 10917 10914 10910 10907 10905 10902 10899 10898 10897 10896 10895 10894 10893 10892 10892 10891 10889 10888
10935 10937 10939 10941 10942 10944 10947 10949 10951 10954 10956 10958 10959 10960 10962 10964 10966 10967 10968 10968 10969 10969 10968 10968 10969 10969 10970 10969 10969 10969 10969 10969 10969 10968 10967 10966 10964 10963 10961 10959 10958 10958 10957 10954 10952 10950 10949 10947 10945 10944 10942 10941 10940 10938 10936 10934 10931 10929 10927 10925 10923 10921 10920 10920 10920 10918 10916 10915 10913 10909 10906 10904 10902 10898 10896 10895 10894 10893 10892 10891 10890 10890 10889 10887 10886
10932 10934 10936 10938 10939 10941 10944 10946 10948 10951 10953 10954 10955 10956 10958 10960 10962 10963 10964 10964 10964 10965 10964 10964 10964 10964 10965 10966 10966 10966 10966 10966 10965 10965 10964 10962 10960 10958 10956 10955 10954 10954 10952 10949 10947 10946 10945 10944 10942 10940 10938 10937 10936 10934 10933 10931 10928 10925 10923 10921 10918 10917 10916 10916 10916 10913 10911 10910 10908 10906 10903 10901 10899 10896 10893 10892 10891 10891 10890 10888 10887 10887 10886 10884 10883
10929 10931 10933 10935 10937 10939 10941 10943 10946 10948 10949 10950 10951 10953 10955 10956 10957 10958 10959 10959 10960 10960 10961 10961 10960 10960 10961 10962 10962 10962 10962 10962 10962 10962 10961 10959 10956 10954 10952 10950 10950 10949 10947 10945 10943 10943 10942 10941 10939 10937 10935 10934 10933 10931 10930 10928 10926 10923 10921 10919 10915 10913 10912 10912 10912 10909 10908 10906 10904 10901 10899 10897 10896 10894 10891 10889 10887 10887 10887 10885 10883 10883 10882 10881 10880
10926 10928 10930 10932 10934 10936 10938 10940 10942 10944 10945 10946 10947 10949 10951 10952 10952 10953 10954 10955 10955 10956 10956 10957 10956 10957 10957 10958 10958 10958 10959 10959 10958 10958 10957 10955 10952 10950 10948 10947 10946 10944 10942 10940 10939 10938 10938 10937 10936 10934 10932 10930 10929 10928 10926 10925 10923 10921 10919 10917 10914 10911 10909 10909 10908 10905 10904 10902 10899 10897 10896 10893 10892 10890 10888 10885 10883 10882 10882 10881 10880 10880 10879 10877 10876
10922 10924 10926 10928 10931 10933 10935 10937 10938 10940 10941 10942 10944 10945 10947 10947 10948 10948 10949 10950 10951 10951 10952 10952 10952 10953 10953 10954 10954 10954 10955 10954 10954 10953 10952 10950 10948 10946 10944 10943 10942 10941 10938 10937 10936 10935 10935 10934 10933 10931 10929 10926 10925 10924 10922 10921 10919 10917 10915 10914 10912 10909 10906 10906 10905 10902 10899 10897 10894 10893 10891 10889 10887 10886 10884 10882 10879 10877 10876 10876 10876 10876 10875 10873 10873
10918 10920 10923 10925 10927 10929 10931 10932 10934 10935 10936 10937 10939 10941 10942 10943 10944 10944 10944 10945 10946 10947 10947 10947 10948 10949 10949 10949 10950 10950 10950 10950 10948 10947 10946 10945 10944 10943 10941 10940 10940 10939 10937 10936 10935 10934 10933 10932 10930 10929 10926 10924 10922 10920 10918 10917 10915 10913 10911 10910 10909 10906 10904 10903 10901 10897 10895 10892 10889 10887 10886 10884 10882 10881 10879 10877 10875 10873 10871 10871 10872 10872 10871 10870 10870
10913 10916 10918 10920 10922 10924 10926 10927 10929 10930 10931 10933 10934 10936 10937 10938 10939 10939 10939 10940 10941 10942 10942 10943 10943 10944 10945 10945 10945 10945 10945 10944 10943 10941 10940 10940 10939 10939 10938 10937 10936 10935 10934 10933 10932 10931 10929 10927 10926 10925 10923 10921 10918 10916 10914 10912 10910 10908 10906 10905 10904 10902 10900 10899 10898 10895 10892 10888 10884 10882 10880 10877 10875 10874 10873 10871 10869 10867 10866 10867 10867 10867 10867 10867 10867
10908 10911 10913 10915 10917 10919 10921 10922 10924 10925 10927 10928 10929 10931 10932 10933 10933 10934 10935 10935 10936 10937 10938 10938 10939 10940 10940 10940 10940 10940 10940 10938 10936 10935 10935 10935 10935 10934 10933 10933 10932 10931 10929 10928 10927 10926 10924 10922 10921 10920 10918 10916 10913 10911 10909 10906 10905 10903 10901 10899 10898 10896 10895 10894 10893 10893 10890 10884 10878 10876 10874 10870 10867 10866 10865 10864 10863 10861 10861 10862 10862 10862 10863 10864 10864
10902 10904 10907 10909 10911 10913 10916 10918 10919 10921 10922 10923 10925 10926 10927 10928 10928 10929 10930 10931 10931 10932 10933 10934 10934 10935 10935 10935 10935 10935 10934 10932 10930 10930 10930 10931 10930 10930 10930 10929 10929 10927 10925 10923 10922 10921 10919 10918 10916 10914 10913 10911 10908 10906 10903 10900 10899 10897 10895 10893 10891 10890 10889 10887 10887 10888 10887 10880 10873 10870 10867 10863 10860 10859 10858 10856 10855 10854 10854 10856 10857 10858 10858 10857 10858
10896 10898 10900 10903 10906 10908 10911 10913 10914 10915 10917 10918 10920 10921 10922 10923 10923 10924 10925 10926 10926 10927 10928 10929 10929 10930 10930 10931 10930 10929 10927 10926 10925 10926 10926 10926 10926 10926 10926 10925 10925 10923 10920 10918 10917 10916 10915 10913 10912 10910 10908 10906 10903 10901 10898 10894 10892 10890 10888 10886 10885 10883 10882 10881 10879 10880 10880 10876 10870 10866 10862 10858 10855 10853 10851 10849 10848 10847 10847 10849 10852 10854 10853 10848 10844
10889 10892 10894 10897 10900 10902 10905 10907 10909 10910 10911 10913 10914 10915 10916 10917 10917 10918 10919 10920 10921 10922 10923 10924 10924 10925 10925 10925 10925 10923 10921 10921 10922 10922 10922 10922 10922 10921 10921 10921 10920 10918 10916 10914 10913 10912 10910 10908 10907 10905 10903 10901 10898 10896 10893 10889 10886 10884 10881 10879 10878 10876 10874 10873 10872 10871 10869 10867 10863 10860 10857 10852 10848 10846 10843 10841 10839 10838 10838 10838 10839 10838 10832 10823 10820
10883 10885 10888 10891 10893 10896 10898 10901 10902 10903 10905 10906 10907 10909 10910 10910 10911 10912 10913 10915 10916 10917 10918 10919 10919 10919 10919 10919 10918 10917 10916 10916 10917 10917 10917 10917 10917 10917 10916 10915 10915 10913 10912 10910 10909 10907 10905 10903 10902 10900 10898 10896 10893 10891 10888 10885 10882 10879 10876 10873 10871 10869 10867 10866 10865 10862 10859 10856 10854 10851 10848 10844 10840 10837 10833 10831 10829 10828 10827 10825 10821 10814 10806 10799 10801
10876 10879 10882 10884 10887 10889 10892 10894 10896 10897 10898 10899 10900 10902 10903 10903 10904 10906 10907 10909 10910 10911 10912 10913 10913 10913 10914 10913 10912 10911 10911 10911 10911 10911 10912 10912 10911 10911 10910 10910 10909 10908 10907 10906 10904 10902 10900 10898 10897 10895 10893 10890 10888 10886 10884 10881 10878 10874 10871 10868 10865 10863 10860 10858 10856 10853 10850 10846 10844 10841 10837 10834 10831 10828 10823 10820 10819 10817 10816 10813 10810 10805 10799 10795 10800
10870 10873 10875 10878 10880 10882 10885 10887 10889 10890 10891 10892 10893 10895 10896 10897 10898 10899 10901 10903 10904 10905 10906 10906 10907 10907 10908 10908 10907 10907 10907 10906 10906 10906 10906 10906 10905 10905 10905 10904 10904 10903 10902 10901 10899 10897 10895 10893 10892 10890 10888 10886 10883 10881 10878 10876 10873 10870 10866 10863 10859 10856 10853 10851 10848 10844 10840 10836 10833 10830 10827 10823 10820 10817 10813 10810 10809 10807 10805 10803 10801 10799 10796 10795 10798
10864 10867 10869 10872 10874 10876 10878 10880 10882 10883 10884 10885 10887 10888 10889 10890 10892 10893 10895 10896 10898 10899 10899 10900 10901 10901 10902 10902 10903 10903 10902 10902 10901 10901 10901 10900 10900 10900 10900 10899 10898 10898 10897 10895 10894 10892 10890 10888 10886 10885 10883 10881 10878 10876 10873 10870 10867 10863 10860 10856 10853 10850 10846 10843 10840 10836 10831 10827 10824 10821 10817 10812 10808 10805 10802 10800 10798 10796 10794 10793 10792 10790 10789 10789 10792
10859 10861 10863 10865 10867 10870 10872 10873 10874 10876 10877 10879 10881 10882 10883 10884 10886 10887 10889 10891 10892 10893 10894 10894 10895 10896 10897 10897 10898 10898 10898 10897 10897 10896 10896 10895 10895 10895 10894 10894 10893 10892 10891 10889 10887 10885 10884 10882 10881 10879 10877 10875 10872 10869 10867 10864 10861 10857 10852 10848 10845 10842 10839 10835 10831 10828 10823 10819 10815 10812 10807 10802 10798 10794 10791 10789 10788 10786 10785 10783 10782 10781 10782 10783 10785
10853 10855 10857 10860 10862 10864 10866 10867 10868 10869 10871 10873 10875 10877 10878 10879 10880 10882 10884 10885 10887 10887 10888 10889 10890 10890 10891 10892 10892 10892 10892 10892 10892 10891 10891 10890 10890 10889 10888 10887 10886 10886 10884 10883 10881 10879 10877 10876 10875 10873 10871 10868 10866 10863 10860 10857 10854 10851 10846 10841 10837 10834 10831 10827 10823 10819 10815 10810 10807 10804 10798 10793 10789 10785 10782 10780 10779 10778 10778 10777 10775 10774 10775 10776 10777
10849 10851 10853 10855 10857 10858 10860 10861 10863 10864 10866 10868 10869 10871 10872 10874 10875 10877 10878 10880 10881 10882 10883 10884 10884 10885 10885 10886 10886 10886 10886 10886 10886 10886 10885 10884 10884 10883 10882 10881 10880 10879 10878 10876 10874 10873 10871 10870 10868 10866 10864 10861 10859 10856 10853 10850 10847 10844 10841 10836 10831 10827 10824 10821 10817 10812 10807 10803 10800 10796 10790 10784 10780 10777 10774 10773 10772 10772 10771 10770 10769 10768 10767 10768 10768
10845 10846 10849 10850 10852 10853 10855 10856 10857 10859 10860 10862 10864 10866 10867 10868 10870 10871 10872 10874 10875 10876 10877 10878 10878 10879 10879 10879 10879 10880 10880 10880 10880 10880 10879 10878 10877 10876 10876 10875 10873 10873 10871 10870 10868 10866 10865 10864 10862 10859 10856 10854 10851 10848 10846 10843 10841 10838 10834 10830 10826 10823 10819 10815 10811 10805 10799 10795 10792 10789 10784 10778 10773 10770 10768 10767 10766 10765 10764 10762 10762 10761 10760 10760 10760
10840 10842 10843 10845 10847 10848 10850 10851 10852 10854 10855 10857 10858 10860 10861 10862 10864 10865 10867 10868 10870 10871 10872 10872 10872 10872 10872 10872 10873 10873 10874 10874 10873 10873 10872 10871 10871 10870 10869 10868 10867 10866 10865 10863 10862 10860 10859 10857 10855 10852 10849 10846 10844 10842 10839 10836 10834 10831 10827 10823 10820 10817 10814 10809 10805 10799 10793 10788 10785 10782 10777 10772 10768 10765 10763 10762 10760 10759 10757 10755 10754 10753 10753 10752 10751
10835 10836 10838 10840 10842 10843 10845 10846 10847 10848 10850 10851 10853 10854 10855 10856 10858 10859 10861 10862 10864 10865 10865 10865 10865 10865 10866 10866 10866 10867 10867 10867 10866 10866 10865 10865 10864 10863 10862 10861 10861 10860 10858 10856 10855 10853 10851 10849 10847 10844 10842 10839 10837 10835 10832 10829 10826 10823 10820 10816 10813 10810 10807 10803 10798 10792 10786 10782 10779 10774 10769 10765 10762 10759 10758 10756 10755 10754 10752 10749 10747 10747 10747 10745 10744
10829 10830 10832 10834 10836 10838 10840 10841 10842 10843 10844 10846 10847 10848 10849 10850 10851 10853 10855 10856 10857 10858 10858 10859 10859 10859 10858 10859 10859 10859 10859 10859 10859 10859 10858 10857 10856 10855 10854 10854 10853 10852 10851 10849 10847 10846 10844 10841 10839 10837 10834 10832 10829 10827 10824 10821 10818 10815 10812 10809 10807 10804 10801 10797 10792 10786 10780 10776 10773 10768 10763 10759 10756 10754 10753 10751 10750 10749 10748 10745 10743 10742 10741 10740 10739
10823 10825 10827 10829 10831 10833 10834 10835 10836 10838 10839 10840 10840 10841 10842 10843 10845 10846 10848 10849 10850 10851 10851 10851 10851 10851 10851 10851 10851 10852 10852 10851 10851 10851 10850 10850 10849 10848 10847 10846 10846 10844 10843 10841 10839 10838 10836 10834 10831 10829 10827 10824 10821 10819 10816 10813 10810 10807 10804 10801 10799 10797 10794 10790 10786 10781 10775 10770 10768 10765 10760 10756 10752 10749 10747 10747 10746 10745 10745 10743 10741 10738 10736 10735 10735
10817 10819 10821 10823 10825 10826 10827 10829 10830 10831 10832 10833 10834 10834 10836 10837 10838 10839 10841 10842 10843 10843 10843 10843 10843 10843 10843 10843 10843 10844 10844 10843 10843 10843 10842 10842 10841 10840 10839 10838 10837 10836 10835 10833 10831 10829 10827 10825 10823 10820 10818 10815 10812 10809 10807 10805 10802 10799 10796 10793 10791 10789 10786 10783 10780 10776 10770 10765 10762 10760 10757 10754 10751 10747 10744 10743 10742 10742 10742 10741 10739 10736 10734 10733 10732
10810 10812 10814 10816 10818 10819 10820 10821 10823 10824 10825 10826 10827 10828 10829 10830 10831 10832 10833 10834 10834 10835 10835 10835 10835 10835 10835 10836 10836 10835 10835 10835 10834 10834 10834 10833 10832 10831 10830 10829 10828 10827 10825 10823 10822 10820 10817 10815 10813 10811 10809 10806 10803 10801 10798 10796 10794 10791 10788 10785 10783 10781 10779 10775 10772 10769 10765 10760 10756 10754 10751 10749 10747 10745 10742 10740 10739 10739 10739 10738 10736 10733 10731 10730 10729
10804 10806 10808 10810 10811 10812 10813 10815 10816 10816 10818 10819 10820 10820 10821 10822 10823 10823 10824 10825 10826 10827 10827 10827 10827 10827 10828 10827 10827 10826 10826 10826 10826 10825 10824 10824 10823 10822 10821 10819 10818 10817 10815 10813 10812 10810 10808 10806 10804 10802 10799 10797 10795 10792 10790 10787 10785 10782 10780 10777 10775 10773 10771 10767 10764 10762 10759 10755 10751 10748 10745 10742 10740 10739 10737 10736 10735 10734 10734 10734 10732 10730 10728 10727 10726
10797 10800 10802 10804 10805 10805 10806 10807 10808 10808 10809 10810 10811 10812 10813 10813 10813 10814 10816 10818 10819 10819 10819 10819 10819 10819 10819 10819 10818 10818 10818 10817 10816 10815 10814 10814 10814 10813 10811 10809 10808 10807 10805 10803 10801 10800 10798 10797 10795 10793 10791 10788 10786 10783 10780 10778 10776 10773 10772 10769 10767 10764 10763 10760 10757 10755 10752 10748 10745 10742 10740 10737 10734 10732 10731 10730 10730 10729 10728 10727 10727 10726 10725 10723 10722
10790 10792 10794 10796 10797 10797 10798 10799 10799 10800 10801 10802 10803 10804 10805 10805 10805 10807 10809 10810 10811 10811 10810 10810 10810 10810 10811 10810 10810 10809 10808 10806 10805 10805 10804 10804 10804 10803 10801 10799 10798 10796 10795 10793 10791 10789 10789 10788 10786 10784 10782 10779 10777 10774 10771 10768 10766 10765 10763 10761 10759 10756 10755 10753 10750 10747 10745 10741 10738 10735 10733 10731 10729 10727 10724 10723 10723 10723 10722 10721 10720 10720 10720 10718 10716
10781 10782 10784 10786 10787 10788 10789 10790 10791 10792 10793 10794 10795 10796 10796 10797 10799 10800 10801 10801 10801 10801 10801 10801 10802 10802 10802 10802 10801 10799 10798 10796 10795 10794 10794 10793 10793 10793 10791 10789 10788 10786 10785 10783 10781 10779 10779 10778 10777 10775 10772 10770 10767 10764 10762 10759 10758 10756 10753 10752 10750 10748 10746 10744 10742 10740 10738 10734 10731 10728 10725 10723 10722 10721 10719 10717 10716 10716 10716 10715 10714 10713 10712 10711 10709
10771 10772 10774 10775 10777 10778 10780 10781 10783 10784 10784 10785 10786 10787 10788 10790 10791 10792 10792 10792 10792 10792 10792 10792 10792 10792 10792 10791 10791 10789 10788 10786 10785 10784 10783 10782 10783 10782 10781 10779 10777 10775 10774 10772 10770 10769 10769 10768 10766 10764 10762 10760 10757 10755 10752 10750 10749 10747 10744 10742 10741 10739 10737 10735 10732 10731 10729 10726 10724 10720 10717 10715 10714 10713 10712 10711 10710 10709 10709 10708 10707 10706 10705 10703 10702
10762 10762 10763 10764 10766 10768 10770 10771 10772 10773 10774 10775 10777 10778 10780 10782 10783 10784 10785 10784 10784 10783 10782 10781 10781 10781 10781 10780 10780 10779 10778 10776 10775 10773 10772 10772 10772 10772 10770 10768 10766 10764 10762 10760 10759 10759 10758 10757 10755 10753 10751 10749 10747 10745 10743 10741 10739 10737 10735 10733 10731 10730 10727 10725 10722 10721 10719 10717 10715 10713 10711 10709 10707 10705 10704 10703 10702 10701 10700 10700 10699 10698 10697 10696 10694
10751 10752 10752 10753 10755 10757 10759 10761 10762 10764 10765 10767 10769 10771 10772 10774 10775 10775 10775 10775 10774 10773 10773 10772 10771 10771 10770 10769 10769 10768 10766 10765 10764 10763 10762 10761 10761 10761 10760 10758 10756 10753 10751 10750 10749 10748 10747 10746 10745 10743 10741 10739 10737 10735 10733 10731 10730 10728 10726 10724 10723 10721 10718 10715 10713 10711 10710 10708 10706 10704 10703 10701 10700 10699 10697 10695 10693 10692 10691 10690 10690 10689 10688 10687 10686
10740 10741 10742 10743 10745 10748 10750 10752 10755 10757 10758 10760 10761 10762 10763 10764 10764 10764 10764 10764 10763 10763 10762 10762 10761 10760 10760 10759 10758 10757 10755 10754 10753 10752 10750 10750 10749 10749 10748 10747 10745 10743 10741 10739 10738 10736 10735 10735 10734 10732 10730 10728 10726 10724 10723 10721 10720 10718 10716 10714 10712 10710 10708 10706 10703 10702 10700 10698 10696 10694 10693 10692 10690 10690 10689 10687 10685 10683 10682 10681 10680 10679 10678 10677 10677
10729 10731 10733 10734 10737 10740 10743 10746 10748 10749 10750 10750 10751 10751 10751 10752 10752 10752 10752 10752 10752 10751 10751 10751 10750 10749 10749 10748 10747 10746 10745 10743 10741 10740 10739 10738 10737 10736 10736 10735 10733 10732 10730 10728 10726 10724 10723 10723 10722 10721 10719 10717 10715 10714 10712 10710 10709 10707 10704 10702 10700 10698 10697 10695 10693 10691 10689 10688 10686 10684 10682 10681 10679 10678 10678 10677 10675 10674 10672 10671 10670 10669 10668 10667 10666
10719 10721 10724 10727 10730 10733 10735 10736 10737 10738 10739 10739 10739 10740 10740 10740 10741 10740 10740 10740 10740 10739 10739 10739 10738 10738 10737 10736 10736 10735 10734 10732 10730 10729 10728 10727 10726 10725 10724 10723 10721 10719 10718 10716 10714 10712 10711 10711 10710 10709 10707 10705 10704 10703 10701 10699 10697 10694 10692 10690 10689 10687 10686 10684 10682 10680 10679 10677 10675 10673 10672 10670 10668 10666 10665 10664 10663 10662 10661 10659 10658 10657 10657 10656 10655
10712 10714 10717 10720 10722 10723 10724 10725 10726 10727 10728 10728 10729 10729 10729 10728 10728 10728 10728 10727 10727 10727 10726 10726 10726 10725 10724 10724 10723 10722 10722 10721 10719 10718 10717 10715 10714 10714 10712 10711 10709 10708 10706 10704 10703 10701 10699 10698 10697 10696 10695 10694 10692 10691 10688 10686 10684 10681 10679 10677 10676 10676 10675 10673 10671 10669 10668 10666 10664 10663 10661 10659 10657 10655 10653 10652 10650 10649 10648 10647 10646 10645 10644 10643 10642
10706 10708 10709 10711 10713 10713 10714 10714 10715 10716 10717 10717 10717 10717 10717 10717 10716 10716 10716 10716 10715 10715 10714 10714 10713 10713 10712 10711 10711 10710 10709 10709 10707 10706 10705 10704 10703 10702 10701 10699 10698 10697 10695 10693 10690 10689 10687 10686 10684 10683 10682 10681 10679 10677 10675 10673 10671 10669 10667 10665 10663 10662 10661 10660 10659 10657 10655 10654 10652 10651 10649 10647 10646 10644 10642 10640 10638 10636 10635 10634 10633 10633 10631 10630 10629